YBMK

Details ICAO YBMK (MKY)
Name Mackay
Region Australia
Timezone Australia/Brisbane (UTC+10.0)
Plans Departing 25
Arriving 36
Stats Elevation 18 ft / 5 m (AMSL)
Location -21.171614° 149.181130°
Runways 2
Magnetic Variation 8.375° E
Sunrise 2018-05-24 20:31:42 UTC / 2018-05-25 06:31:42 Local
Sunset 2018-05-25 07:31:31 UTC / 2018-05-25 17:31:31 Local
Advertisement - Login to hide

Runways

ID Width Length Bearing (true) Bearing (mag) Surface Threshold Offset Overrun Length
05 98 ft / 30 m 4,411 ft / 1,344 m 57.80° 49.42° Asphalt 194 ft / 59 m 0 ft / 0 m
14 148 ft / 45 m 6,516 ft / 1,986 m 147.90° 139.52° Asphalt 0 ft / 0 m 0 ft / 0 m
23 98 ft / 30 m 4,411 ft / 1,344 m 237.80° 229.42° Asphalt 0 ft / 0 m 0 ft / 0 m
32 148 ft / 45 m 6,516 ft / 1,986 m 327.90° 319.52° Asphalt 0 ft / 0 m 0 ft / 0 m

Map

Weather


0- 5 10 15 20 25 30 35+ Temperature / ° C

Clouds and Precipitation
Forecast for 2018-05-25 06:00 UTC. Updated 42 minutes ago

Ground ~20,000 ft ~40,000 ft Winds

METAR

YBMK 250500Z AUTO 14019KT 9999 // SCT070 24/18 Q1017

TAF

Not found

Frequencies

Recorded 128.00 MHz YBMK ATIS
Unicom 124.50 MHz MACKAY MULT
Tower 135.50 MHz BRISBANE CNTR
Unicom 119.60 MHz ACTIVATE LIGHTS ONLY MULT
Tower 124.50 MHz MACKAY TWR
Warning: Do not use this data for real-world aviation or navigation. No guarantee of current accuracy is given.